Dauntless Aviation
Greetings, Guest! To participate, [sign up for a free account] or [log in]
Airports North America Canada
CYLW
YLW

Kelowna International Airport

Kelowna, BC, CANADA

Airport Info
Edit

Location

Latitude / Longitude: 49°53'0"N / 119°29'35"W
  49°53.016'N / 119°29.598'W
  49.8836 / -119.4933

Nearby radio navigation aids

EX RUTLAND NDB. 335.5° 1.0nm from EX to field.
LW KELOWNA NDB. 147.1° 6.5nm from LW to field.

Runway Information

Runway 16 /34

Dimensions: 7300 x 200 ft.
Surface: ASP
 
Runway 16
Runway 34
Latitude: 49.966 49.946278
Longitude: -119.378961 -119.376461
Elevation: 1409 ft. 1409 ft.
Runway true heading: 166.6 346.6
 

Instrument Procedures

  Aerodrome Chart
  Parking Areas
  CAC: Aerodrome Chart
  CAC: Parking Areas - Apron I
  CAC: Parking Areas - Apron III

IAPs (Instrument Approach Procedures)

  CFS: KELOWNA VFR Terminal Procedures Chart
  CFS: KELOWNA VFR Terminal Procedures Chart - Night Circuit Procedure
  CFS: Aerodrome Information
  CFS: Aerodrome Information (Part 2)
  DATBO ONE ARR (DATBO.DATBO 1)
  LENUR ONE ARR (LENUR.LENUR 1)
  RNAV (GNSS) A
  NDB B (GNSS)
  ILS/DME 1 Rwy 16
  Night Circuit Procedures
  KELOWNA FIVE DEP (YLW 5.)

Departure Procedures

  Departure Procedure
Satellite photo at:
Airport distance calculator
From:
Weather Reports

METAR

CYLW

CYLW 280100Z AUTO 25007KT 220V300 9SM CLR 32/08 A2984 RMK SLP098 DENSITY ALT 3700FT
CWUS
20.0nm S
CWUS 280100Z AUTO 03003KT 32/10 RMK AO1 SLP096 T03170095 56013
CWJV
21.6nm N
CWJV 280100Z AUTO 28005KT 30/08 RMK AO1 SLP096 T03010076 56011
CYYF
25.3nm S
CYYF 280100Z 17010KT 15SM FEW095 SCT140 32/13 A2982 RMK CU2AC1 SLP091 DENSITY ALT 3400FT

TAF

CYLW
TAF CYLW 280038Z 2801/2813 22007KT P6SM SCT100 BECMG 2803/2805 VRB03KT RMK FCST BASED ON AUTO OBS. NXT FCST BY 280700Z
CYYF
25.3nm S
TAF CYYF 280038Z 2801/2813 18008KT P6SM SCT100 TEMPO 2801/2803 VRB15G25KT P6SM VCSH BKN100 FM280300 35006KT P6SM FEW100 SCT240 RMK NXT FCST BY 280700Z
Safelog

 

Dauntless Aviation

© 2007-2014 Dauntless Aviation, all rights reserved
Information provided via PilotNav comes from a variety of official and unofficial data sources. As errors are possible, do not use PilotNav for primary flight planning purposes. Verify any information that you receive via PilotNav with current and canonical charts and other official documents. The material in this database is subject to database copyrights held by Dauntless Aviation and may not be copied without the express permission of Dauntless Aviation - licenses for use of part of all of this data are available for purchase; enquire via the Dauntless Aviation helpdesk. A number of mechanisms and markers exist in the database to protect against and identify infringement / copyright. Automated queries against this website are stictly prohibited, and all activity is logged and analyzed.